When you browse on this site, cookies collect data to enhance your experience and personalize the content and advertising you see.
Visit our Privacy Policy to learn more. By continuing to use the site, you agree to this use of cookies and data.
  • Em Portugal
  • Lista de países
  • Para 7 dias
  • Temperatura da água
  • Mapa do tempo
  • Widgets de tempo
  • user-avatar
    Iniciar Sessão

    Previsão horária em Melbourne

    Hoje, 15 Outubro, Terça-feira

    Tempo Temperatura Precipitação Vento Pressão Humidade
    00:00 +13°C° 0 mm 3 m/s 759 mmHg 82%
    01:00 +13°C° 0 mm 3 m/s 759 mmHg 83%
    02:00 +13°C° 0 mm 2 m/s 759 mmHg 83%
    03:00 +13°C° 0 mm 2 m/s 759 mmHg 84%
    04:00 +13°C° 0 mm 1 m/s 759 mmHg 85%
    05:00 +13°C° 0 mm 2 m/s 759 mmHg 84%
    06:00 +13°C° 0 mm 2 m/s 759 mmHg 83%
    07:00 +13°C° 0 mm 2 m/s 759 mmHg 82%
    08:00 +15°C° 0 mm 2 m/s 759 mmHg 73%
    09:00 +16°C° 0 mm 2 m/s 758 mmHg 64%
    10:00 +17°C° 0 mm 2 m/s 758 mmHg 57%
    11:00 +18°C° 0 mm 2 m/s 758 mmHg 53%
    12:00 +19°C° 0 mm 2 m/s 758 mmHg 48%
    13:00 +20°C° 0 mm 2 m/s 758 mmHg 44%
    14:00 +20°C° 0 mm 3 m/s 757 mmHg 44%
    15:00 +20°C° 0 mm 3 m/s 757 mmHg 43%
    16:00 +19°C° 0 mm 2 m/s 757 mmHg 45%
    17:00 +18°C° 0 mm 2 m/s 758 mmHg 54%
    18:00 +16°C° 0 mm 3 m/s 758 mmHg 63%
    19:00 +14°C° 0 mm 3 m/s 758 mmHg 73%
    20:00 +14°C° 0 mm 2 m/s 759 mmHg 76%
    21:00 +14°C° 0 mm 2 m/s 759 mmHg 80%
    22:00 +13°C° 0 mm 1 m/s 759 mmHg 83%
    23:00 +13°C° 0 mm 1 m/s 759 mmHg 84%

    Amanhã, 16 Outubro, Quarta-feira

    Tempo Temperatura Precipitação Vento Pressão Humidade
    00:00 +13°C° 0 mm 1 m/s 758 mmHg 85%
    01:00 +13°C° 0 mm 1 m/s 758 mmHg 86%
    02:00 +13°C° 0 mm 1 m/s 758 mmHg 86%
    03:00 +12°C° 0 mm 1 m/s 757 mmHg 86%
    04:00 +12°C° 0 mm 1 m/s 757 mmHg 86%
    05:00 +13°C° 0.2 mm 1 m/s 757 mmHg 86%
    06:00 +13°C° 0.2 mm 1 m/s 757 mmHg 86%
    07:00 +13°C° 0.2 mm 1 m/s 757 mmHg 87%
    08:00 +13°C° 0.4 mm 1 m/s 757 mmHg 86%
    09:00 +14°C° 0.4 mm 1 m/s 756 mmHg 86%
    10:00 +14°C° 0.4 mm 1 m/s 756 mmHg 85%
    11:00 +16°C° 0.2 mm 2 m/s 756 mmHg 78%
    12:00 +17°C° 0.2 mm 3 m/s 756 mmHg 71%
    13:00 +18°C° 0.2 mm 4 m/s 755 mmHg 64%
    14:00 +18°C° 0.7 mm 4 m/s 755 mmHg 67%
    15:00 +17°C° 0.7 mm 4 m/s 754 mmHg 69%
    16:00 +16°C° 0.7 mm 5 m/s 754 mmHg 72%
    17:00 +15°C° 0.7 mm 4 m/s 754 mmHg 76%
    18:00 +13°C° 0.7 mm 3 m/s 755 mmHg 80%
    19:00 +13°C° 0.7 mm 2 m/s 755 mmHg 84%
    20:00 +12°C° 0 mm 1 m/s 755 mmHg 85%
    21:00 +12°C° 0 mm 1 m/s 755 mmHg 86%
    22:00 +11°C° 0 mm 1 m/s 755 mmHg 87%
    23:00 +10°C° 0.1 mm 2 m/s 755 mmHg 87%

    Depois de amanhã, 17 Outubro, Quinta-feira

    Tempo Temperatura Precipitação Vento Pressão Humidade
    00:00 +10°C° 0.1 mm 3 m/s 754 mmHg 88%
    01:00 +10°C° 0.1 mm 4 m/s 754 mmHg 88%
    02:00 +10°C° 0.3 mm 4 m/s 754 mmHg 85%
    03:00 +8°C° 0.3 mm 4 m/s 753 mmHg 81%
    04:00 +8°C° 0.3 mm 4 m/s 753 mmHg 77%
    05:00 +8°C° 0 mm 4 m/s 754 mmHg 77%
    06:00 +8°C° 0 mm 4 m/s 754 mmHg 77%
    07:00 +8°C° 0 mm 4 m/s 754 mmHg 76%
    08:00 +9°C° 0.2 mm 5 m/s 754 mmHg 71%
    09:00 +10°C° 0.2 mm 5 m/s 754 mmHg 66%
    10:00 +11°C° 0.2 mm 6 m/s 754 mmHg 61%
    11:00 +11°C° 1 mm 6 m/s 755 mmHg 63%
    12:00 +11°C° 1 mm 6 m/s 755 mmHg 64%
    13:00 +13°C° 1 mm 6 m/s 755 mmHg 66%
    14:00 +14°C° 0.2 mm 6 m/s 756 mmHg 61%
    15:00 +15°C° 0.2 mm 6 m/s 756 mmHg 55%
    16:00 +16°C° 0.2 mm 5 m/s 756 mmHg 50%
    17:00 +15°C° 0 mm 5 m/s 757 mmHg 55%
    18:00 +13°C° 0 mm 5 m/s 758 mmHg 61%
    19:00 +12°C° 0 mm 5 m/s 759 mmHg 66%
    20:00 +11°C° 0 mm 4 m/s 759 mmHg 70%
    21:00 +10°C° 0 mm 4 m/s 760 mmHg 74%
    22:00 +10°C° 0 mm 3 m/s 760 mmHg 79%
    23:00 +9°C° 0 mm 3 m/s 760 mmHg 79%

    18 Outubro, Sexta-feira

    Tempo Temperatura Precipitação Vento Pressão Humidade
    00:00 +8°C° 0 mm 3 m/s 760 mmHg 79%
    01:00 +8°C° 0 mm 3 m/s 760 mmHg 79%
    02:00 +8°C° 0 mm 3 m/s 759 mmHg 77%
    03:00 +7°C° 0 mm 3 m/s 759 mmHg 76%
    04:00 +7°C° 0 mm 3 m/s 758 mmHg 74%
    05:00 +7°C° 0 mm 4 m/s 759 mmHg 73%
    06:00 +7°C° 0 mm 4 m/s 759 mmHg 72%
    07:00 +8°C° 0 mm 5 m/s 759 mmHg 70%
    08:00 +9°C° 0 mm 6 m/s 758 mmHg 67%
    09:00 +10°C° 0 mm 7 m/s 758 mmHg 63%
    10:00 +12°C° 0 mm 7 m/s 757 mmHg 59%
    11:00 +15°C° 0 mm 8 m/s 757 mmHg 54%
    12:00 +17°C° 0 mm 8 m/s 756 mmHg 48%
    13:00 +20°C° 0 mm 8 m/s 756 mmHg 43%
    14:00 +18°C° 0 mm 8 m/s 755 mmHg 44%
    15:00 +18°C° 0 mm 8 m/s 755 mmHg 46%
    16:00 +18°C° 0 mm 8 m/s 754 mmHg 47%
    17:00 +16°C° 0.4 mm 7 m/s 755 mmHg 58%
    18:00 +15°C° 0.4 mm 7 m/s 755 mmHg 69%
    19:00 +13°C° 0.4 mm 6 m/s 756 mmHg 80%
    20:00 +11°C° 0.1 mm 6 m/s 757 mmHg 78%
    21:00 +10°C° 0.1 mm 6 m/s 757 mmHg 76%
    22:00 +9°C° 0.1 mm 5 m/s 758 mmHg 74%
    23:00 +8°C° 0.1 mm 5 m/s 758 mmHg 73%

    19 Outubro, Sábado

    Tempo Temperatura Precipitação Vento Pressão Humidade
    00:00 +8°C° 0.1 mm 5 m/s 758 mmHg 73%
    01:00 +7°C° 0.1 mm 5 m/s 758 mmHg 72%
    02:00 +7°C° 0.1 mm 5 m/s 758 mmHg 75%
    03:00 +7°C° 0.1 mm 5 m/s 758 mmHg 78%
    04:00 +6°C° 0.1 mm 5 m/s 758 mmHg 80%
    05:00 +6°C° 0.1 mm 5 m/s 759 mmHg 78%
    06:00 +7°C° 0.1 mm 5 m/s 759 mmHg 76%
    07:00 +7°C° 0.1 mm 5 m/s 760 mmHg 74%
    08:00 +8°C° 0.1 mm 6 m/s 760 mmHg 69%
    09:00 +9°C° 0.1 mm 6 m/s 760 mmHg 63%
    10:00 +10°C° 0.1 mm 6 m/s 761 mmHg 58%
    11:00 +10°C° 0.2 mm 6 m/s 761 mmHg 61%
    12:00 +10°C° 0.2 mm 6 m/s 762 mmHg 64%
    13:00 +10°C° 0.2 mm 6 m/s 762 mmHg 67%
    14:00 +11°C° 0.2 mm 6 m/s 762 mmHg 62%
    15:00 +13°C° 0.2 mm 6 m/s 762 mmHg 58%
    16:00 +14°C° 0.2 mm 6 m/s 762 mmHg 53%
    17:00 +13°C° 0.1 mm 6 m/s 763 mmHg 57%
    18:00 +12°C° 0.1 mm 5 m/s 763 mmHg 60%
    19:00 +10°C° 0.1 mm 5 m/s 764 mmHg 64%
    20:00 +10°C° 0 mm 4 m/s 765 mmHg 68%
    21:00 +10°C° 0 mm 4 m/s 765 mmHg 72%
    22:00 +8°C° 0 mm 4 m/s 766 mmHg 76%
    23:00 +8°C° 0 mm 4 m/s 766 mmHg 79%

    20 Outubro, Domingo

    Tempo Temperatura Precipitação Vento Pressão Humidade
    00:00 +8°C° 0 mm 3 m/s 766 mmHg 81%
    01:00 +8°C° 0 mm 3 m/s 766 mmHg 83%
    02:00 +8°C° 0 mm 3 m/s 766 mmHg 84%
    03:00 +8°C° 0 mm 3 m/s 766 mmHg 85%
    04:00 +8°C° 0 mm 3 m/s 766 mmHg 85%
    05:00 +8°C° 0 mm 3 m/s 767 mmHg 83%
    06:00 +9°C° 0 mm 3 m/s 767 mmHg 80%
    07:00 +9°C° 0 mm 2 m/s 767 mmHg 78%
    08:00 +11°C° 0 mm 3 m/s 768 mmHg 71%
    09:00 +12°C° 0 mm 3 m/s 768 mmHg 65%
    10:00 +14°C° 0 mm 3 m/s 768 mmHg 59%
    11:00 +15°C° 0 mm 4 m/s 768 mmHg 56%
    12:00 +15°C° 0 mm 4 m/s 768 mmHg 54%
    13:00 +17°C° 0 mm 4 m/s 768 mmHg 52%
    14:00 +17°C° 0 mm 4 m/s 768 mmHg 53%
    15:00 +17°C° 0 mm 4 m/s 767 mmHg 53%
    16:00 +18°C° 0 mm 4 m/s 767 mmHg 54%
    17:00 +15°C° 0 mm 4 m/s 768 mmHg 61%
    18:00 +14°C° 0 mm 3 m/s 768 mmHg 68%
    19:00 +12°C° 0 mm 3 m/s 769 mmHg 74%
    20:00 +12°C° 0 mm 3 m/s 769 mmHg 76%
    21:00 +12°C° 0 mm 2 m/s 770 mmHg 78%
    22:00 +12°C° 0 mm 2 m/s 770 mmHg 80%
    23:00 +10°C° 0 mm 2 m/s 770 mmHg 80%
    Mostrar mais